This demonstration page uses our WeatherBlox Daily Observations layout. Learn more.

38.88101, -77.10428

Hourly Observations for August 10, 2017

Temp ( °F °C ) Dew Point ( °F °C ) Humidity (%) Winds ( mph kmh ) Pressure ( in mb ) Visibility ( mi km ) Precip ( " mm )
12:52 am 00:52 Mostly Cloudy 73 22.8 62 16.7 69 69 Calm 30.24 1024 10 16.0934 0 0
1:52 am 01:52 Mostly Cloudy 70 21.1 62 16.7 76 76 SSW 5 7 30.24 1024 10 16.0934 0 0
2:52 am 02:52 Mostly Clear 71 21.7 64 17.8 79 79 Calm 30.23 1024 10 16.0934 0 0
3:52 am 03:52 Clear 69 20.6 62 16.7 78 78 Calm 30.22 1023 10 16.0934 0 0
4:52 am 04:52 Mostly Clear 69 20.6 63 17.2 81 81 Calm 30.23 1024 10 16.0934 0 0
5:52 am 05:52 Mostly Cloudy 68 20 64 17.8 87 87 SSW 3 6 30.23 1024 10 16.0934 0 0
6:52 am 06:52 Mostly Cloudy 70 21.1 65 18.3 84 84 Calm 30.24 1024 10 16.0934 0 0
7:52 am 07:52 Partly Cloudy 72 22.2 66 18.9 82 82 SSW 3 6 30.25 1025 10 16.0934 0 0
8:52 am 08:52 Mostly Sunny 76 24.4 64 17.8 67 67 WSW 6 9 30.26 1025 10 16.0934 0 0
9:52 am 09:52 Mostly Sunny 80 26.7 63 17.2 56 56 VRB 5 7 30.26 1025 10 16.0934 0 0
10:52 am 10:52 Partly Cloudy 80 26.7 63 17.2 56 56 SSE 5 7 30.25 1024 10 16.0934 0 0
11:52 am 11:52 Partly Cloudy 82 27.8 59 15 46 46 SSW 8 13 30.24 1024 10 16.0934 0 0
12:52 pm 12:52 Mostly Cloudy 83 28.3 58 14.4 43 43 S 8 13 30.23 1024 10 16.0934 0 0
1:52 pm 13:52 Mostly Cloudy 83 28.3 61 16.1 48 48 S 9 15 30.22 1023 10 16.0934 0 0
2:52 pm 14:52 Mostly Cloudy 83 28.3 63 17.2 51 51 S 9 15 30.21 1023 10 16.0934 0 0
3:52 pm 15:52 Mostly Cloudy 82 27.8 62 16.7 51 51 S 7 11 30.19 1022 10 16.0934 0 0
4:52 pm 16:52 Mostly Cloudy 81 27.2 61 16.1 51 51 S 8 13 30.18 1022 10 16.0934 0 0
5:52 pm 17:52 Mostly Cloudy 81 27.2 61 16.1 51 51 S 9 15 30.17 1022 10 16.0934 0 0
6:52 pm 18:52 Cloudy 79 26.1 60 15.6 52 52 S 7 11 30.17 1022 10 16.0934 0 0
7:52 pm 19:52 Mostly Cloudy 79 26.1 62 16.7 56 56 S 7 11 30.16 1022 10 16.0934 0 0
8:52 pm 20:52 Partly Cloudy 77 25 63 17.2 62 62 SSE 6 9 30.16 1022 10 16.0934 0 0
9:52 pm 21:52 Mostly Clear 75 23.9 64 17.8 69 69 SSE 7 11 30.17 1022 10 16.0934 0 0
10:52 pm 22:52 Partly Cloudy 74 23.3 64 17.8 71 71 SSE 5 7 30.16 1021 10 16.0934 0 0
11:52 pm 23:52 Mostly Cloudy 74 23.3 63 17.2 69 69 S 8 13 30.17 1022 10 16.0934 0 0

Powered by AerisWeather